Find Starlink 34215

NORAD ID: 64252 Int'l Des: 2025-119 Owner: SPXS Country: US Constellation: starlink operational
LEOCIRCULAR

当前视图

正在加载3D地球...

About Starlink 34215

Starlink 34215 (NORAD 64252) is a starlink constellation satellite (v2 mini) launched Jun 3, 2025 by SPXS of US. It operates in LEO, CIRCULAR orbit with a mass of 575.00 kg.

即将过境

Passes for default location (London). Set your location on the main map for personalized predictions.

高度历史

Loading altitude history...

两行轨道根数

1 64252U 25119V 26238.59144165 .00018486 00000-0 67953-3 0 9993
2 64252 43.0022 67.5286 0001389 241.5566 118.5146 15.27584142 70154
Epoch: Aug 26, 2026 • Age: 7 hours

当前状态

高度 487.0 km
远地点 / 近地点 N/A
速度 7.63 km/s
星下点 43.15°N, 131.01°W
发射日期 Jun 3, 2025
运行时间 1.2 years
类型 internet

技术详情

分类 Payload
质量 575.00 kg
干质量 530.00 kg
总质量 575.00 kg
长度 0.30 m
直径 4.10 m
跨度 29.00 m
形状 Box + pan
制造商 SPXS
平台类型 Starlink V2MO
阶段状态 In Orbit
所有者/国家 SPXS/US

Most Searched